Date String (YYYY-MM-DD hh:mm:ss) UTC,Instrument flags,Ambient pressure (hPa),Sample flow (lpm),Bypass flow (lpm),Sample temperature (°C),Ambient temperature (°C),ASC tube jacket temperature (°C),LED temperature (°C),Box temperature (°C),Sample RH (%),Span deviation,Mass concentration (μg/m³),Mass concentration (μg/m³),Mass concentration (μg/m³)
DateTimeUTC,F1_M11,P_M11,Q1_M11,Q2_M11,T1_M11,T2_M11,T3_M11,T4_M11,T5_M11,U1_M11,ZSPAN_M11,X0_M11,X2_M11,X1_M11
2022-01-16 10:00:00,,0825.5,4.99,0.00,22.4,21.7,00.0,31.3,24.2,05.5,0000.0,0003.82,0003.01,0002.76
2022-01-16 10:01:00,,0825.4,5.02,0.00,22.4,21.7,00.0,31.4,24.2,05.1,0000.0,0003.45,0002.71,0002.47
2022-01-16 10:02:00,,0825.4,4.99,0.00,22.4,21.7,00.0,31.4,24.2,04.8,0000.0,0003.12,0002.46,0002.24
2022-01-16 10:03:00,,0825.4,5.01,0.00,22.4,21.7,00.0,31.4,24.1,05.1,0000.0,0002.85,0002.28,0002.08
2022-01-16 10:04:00,,0825.3,5.00,0.00,22.4,21.7,00.0,31.4,24.2,05.0,0000.0,0002.83,0002.23,0002.01
2022-01-16 10:05:00,,0825.3,4.98,0.00,22.4,21.7,00.0,31.4,24.2,04.7,0000.0,0002.79,0002.13,0001.93
2022-01-16 10:06:00,,0825.3,5.01,0.00,22.4,21.7,00.0,31.4,24.2,04.7,0000.0,0002.52,0001.92,0001.75
2022-01-16 10:07:00,,0825.3,5.02,0.00,22.4,21.7,00.0,31.4,24.2,04.5,0000.0,0002.25,0001.68,0001.52
2022-01-16 10:08:00,,0825.3,5.00,0.00,22.4,21.7,00.0,31.4,24.2,04.7,0000.0,0002.14,0001.57,0001.41
2022-01-16 10:09:00,,0825.3,5.00,0.00,22.4,21.7,00.0,31.4,24.2,05.3,0000.0,0002.20,0001.61,0001.41
2022-01-16 10:10:00,,0825.3,5.01,0.00,22.4,21.7,00.0,31.4,24.2,05.2,0000.0,0002.23,0001.63,0001.40
2022-01-16 10:11:00,,0825.3,5.00,0.00,22.4,21.7,00.0,31.4,24.2,04.8,0000.0,0002.18,0001.56,0001.34
2022-01-16 10:12:00,,0825.3,4.98,0.00,22.4,21.7,00.0,31.4,24.1,04.7,0000.0,0002.07,0001.50,0001.28
2022-01-16 10:13:00,,0825.3,5.01,0.00,22.4,21.7,00.0,31.4,24.1,04.7,0000.0,0002.12,0001.51,0001.27
2022-01-16 10:14:00,,0825.3,4.99,0.00,22.4,21.7,00.0,31.4,24.1,05.2,0000.0,0002.19,0001.53,0001.27
2022-01-16 10:15:00,,0825.3,5.00,0.00,22.4,21.7,00.0,31.4,24.1,05.5,0000.0,0002.21,0001.59,0001.30
2022-01-16 10:16:00,,0825.3,5.00,0.00,22.4,21.7,00.0,31.4,24.1,05.7,0000.0,0002.30,0001.67,0001.37
2022-01-16 10:17:00,,0825.3,5.00,0.00,22.4,21.7,00.0,31.4,24.1,05.4,0000.0,0002.44,0001.78,0001.46
2022-01-16 10:18:00,,0825.2,5.00,0.00,22.4,21.7,00.0,31.4,24.1,05.2,0000.0,0002.44,0001.81,0001.50
2022-01-16 10:19:00,,0825.3,5.01,0.00,22.4,21.7,00.0,31.4,24.1,05.0,0000.0,0002.48,0001.85,0001.53
2022-01-16 10:20:00,,0825.2,5.01,0.00,22.4,21.7,00.0,31.4,24.1,04.9,0000.0,0002.43,0001.80,0001.50
2022-01-16 10:21:00,,0825.2,4.99,0.00,22.4,21.7,00.0,31.4,24.1,04.8,0000.0,0002.43,0001.77,0001.48
2022-01-16 10:22:00,,0825.2,5.00,0.00,22.4,21.7,00.0,31.4,24.1,04.8,0000.0,0002.49,0001.77,0001.47
2022-01-16 10:23:00,,0825.2,5.01,0.00,22.4,21.7,00.0,31.4,24.1,04.9,0000.0,0002.58,0001.81,0001.49
2022-01-16 10:24:00,,0825.1,4.99,0.00,22.4,21.7,00.0,31.4,24.2,04.9,0000.0,0002.57,0001.83,0001.51
2022-01-16 10:25:00,,0825.1,5.00,0.00,22.4,21.7,00.0,31.4,24.1,05.7,0000.0,0002.53,0001.83,0001.53
2022-01-16 10:26:00,,0825.2,5.00,0.00,22.4,21.7,00.0,31.4,24.1,06.4,0000.0,0002.57,0001.87,0001.56
2022-01-16 10:27:00,,0825.2,5.00,0.00,22.3,21.6,00.0,31.4,24.1,06.6,0000.0,0002.79,0001.97,0001.65
2022-01-16 10:28:00,,0825.1,5.00,0.00,22.3,21.6,00.0,31.4,24.1,06.8,0000.0,0003.10,0002.16,0001.82
2022-01-16 10:29:00,,0825.1,5.02,0.00,22.3,21.6,00.0,31.4,24.1,07.0,0000.0,0003.74,0002.52,0002.10
2022-01-16 10:30:00,,0825.1,4.99,0.00,22.3,21.6,00.0,31.4,24.1,06.9,0000.0,0004.22,0002.87,0002.43
2022-01-16 10:31:00,,0825.1,5.00,0.00,22.3,21.6,00.0,31.4,24.1,06.7,0000.0,0004.70,0003.16,0002.74
2022-01-16 10:32:00,,0825.1,5.01,0.00,22.3,21.6,00.0,31.4,24.1,07.0,0000.0,0005.14,0003.36,0003.05
2022-01-16 10:33:00,,0825.0,5.00,0.00,22.3,21.6,00.0,31.4,24.1,07.0,0000.0,0005.63,0003.55,0003.28
2022-01-16 10:34:00,,0824.9,5.01,0.00,22.3,21.6,00.0,31.3,24.1,07.0,0000.0,0006.08,0003.75,0003.46
2022-01-16 10:35:00,,0824.9,4.99,0.00,22.3,21.7,00.0,31.4,24.1,07.2,0000.0,0006.53,0003.95,0003.65
2022-01-16 10:36:00,,0825.0,5.00,0.00,22.4,22.4,00.0,31.4,24.3,07.4,0000.0,0006.98,0004.15,0003.83
2022-01-16 10:37:00,,0825.0,5.00,0.00,22.6,22.9,00.0,31.4,24.6,07.5,0000.0,0007.18,0004.25,0003.96
2022-01-16 10:38:00,,0825.0,4.99,0.00,22.6,22.9,00.0,31.4,24.6,07.5,0000.0,0007.14,0004.33,0004.06
2022-01-16 10:39:00,,0825.1,5.01,0.00,22.7,22.8,00.0,31.5,24.6,07.4,0000.0,0007.34,0004.42,0004.15
2022-01-16 10:40:00,,0825.1,5.00,0.00,22.6,22.6,00.0,31.5,24.6,07.4,0000.0,0007.32,0004.45,0004.20
2022-01-16 10:41:00,,0825.1,4.99,0.00,22.6,22.5,00.0,31.5,24.5,07.4,0000.0,0007.32,0004.48,0004.23
2022-01-16 10:42:00,,0825.0,5.00,0.00,22.6,22.4,00.0,31.5,24.5,07.3,0000.0,0007.41,0004.54,0004.28
2022-01-16 10:43:00,,0825.0,4.99,0.00,22.6,22.3,00.0,31.5,24.4,07.3,0000.0,0007.50,0004.58,0004.31
2022-01-16 10:44:00,,0824.9,5.01,0.00,22.6,22.2,00.0,31.5,24.4,07.2,0000.0,0007.47,0004.61,0004.34
2022-01-16 10:45:00,,0825.0,5.00,0.00,22.6,22.1,00.0,31.5,24.4,07.1,0000.0,0007.47,0004.62,0004.35
2022-01-16 10:46:00,,0824.9,5.00,0.00,22.6,22.1,00.0,31.5,24.4,07.1,0000.0,0007.50,0004.63,0004.35
2022-01-16 10:47:00,,0825.0,5.00,0.00,22.6,22.0,00.0,31.5,24.3,07.1,0000.0,0007.56,0004.65,0004.34
2022-01-16 10:48:00,,0825.1,5.00,0.00,22.6,22.0,00.0,31.5,24.3,07.3,0000.0,0007.89,0004.67,0004.35
2022-01-16 10:49:00,,0825.1,5.00,0.00,22.5,22.0,00.0,31.5,24.3,07.4,0000.0,0008.27,0004.71,0004.36
2022-01-16 10:50:00,,0825.1,5.00,0.00,22.5,21.9,00.0,31.5,24.3,07.2,0000.0,0008.26,0004.69,0004.36
2022-01-16 10:51:00,,0825.1,5.00,0.00,22.5,21.9,00.0,31.5,24.3,07.1,0000.0,0008.16,0004.66,0004.35
2022-01-16 10:52:00,,0825.1,5.00,0.00,22.5,21.9,00.0,31.5,24.3,07.1,0000.0,0008.18,0004.66,0004.34
2022-01-16 10:53:00,,0825.0,5.00,0.00,22.5,21.9,00.0,31.5,24.3,07.0,0000.0,0008.16,0004.66,0004.33
2022-01-16 10:54:00,,0825.1,5.00,0.00,22.5,21.9,00.0,31.5,24.3,06.9,0000.0,0008.16,0004.66,0004.34
2022-01-16 10:55:00,,0825.1,4.99,0.00,22.5,21.9,00.0,31.5,24.3,07.1,0000.0,0008.12,0004.65,0004.34
2022-01-16 10:56:00,,0825.1,5.01,0.00,22.5,21.9,00.0,31.5,24.3,06.9,0000.0,0008.10,0004.64,0004.33
2022-01-16 10:57:00,,0825.2,4.99,0.00,22.5,21.8,00.0,31.5,24.3,07.0,0000.0,0008.13,0004.66,0004.34
2022-01-16 10:58:00,,0825.2,5.00,0.00,22.5,21.8,00.0,31.5,24.3,07.0,0000.0,0008.12,0004.65,0004.33
2022-01-16 10:59:00,,0825.2,5.02,0.00,22.5,21.8,00.0,31.5,24.3,06.9,0000.0,0007.88,0004.61,0004.31
